This is the latest recevied weather packets stored in our database for station/object W1HVD. If no packets are shown the sender has not sent any weather packets the latest 10 day(s).
| Time | Temp. | Humidity | Pressure | Rain* | Wind** | Luminosity | Snow |
|---|---|---|---|---|---|---|---|
| 1778163338 | 13.89° C | 70% | 1007.9 hPa | 0 mm | - | 652 W/m² | - |
| 1778163035 | 13.89° C | 78% | 1008.1 hPa | 0 mm | - | 614 W/m² | - |
| 1778162732 | 12.78° C | 71% | 1008 hPa | 0 mm | - | 554 W/m² | - |
| 1778162429 | 12.78° C | 74% | 1008.2 hPa | 0 mm | - | 764 W/m² | - |
| 1778162126 | 12.78° C | 76% | 1008.2 hPa | 0 mm | - | 851 W/m² | - |
| 1778161823 | 12.78° C | 85% | 1007.9 hPa | 0 mm | - | 762 W/m² | - |
| 1778161520 | 12.22° C | 84% | 1008 hPa | 0 mm | - | 823 W/m² | - |
| 1778161215 | 12.22° C | 89% | 1008.1 hPa | 0 mm | - | 762 W/m² | - |
| 1778160912 | 11.67° C | 91% | 1008.1 hPa | 0 mm | - | 424 W/m² | - |
| 1778160610 | 11.11° C | 92% | 1008 hPa | 0 mm | - | 837 W/m² | - |
| 1778160306 | 11.11° C | 94% | 1008.3 hPa | 0 mm | - | 143 W/m² | - |
| 1778160003 | 11.11° C | 94% | 1008.2 hPa | 0 mm | - | 310 W/m² | - |
| 1778159700 | 11.11° C | 96% | 1008 hPa | 0 mm | - | 476 W/m² | - |
| 1778159396 | 11.11° C | 96% | 1008.3 hPa | 0 mm | - | 790 W/m² | - |
| 1778159094 | 10.56° C | 97% | 1008.2 hPa | 0 mm | - | 753 W/m² | - |
| 1778158792 | 11.11° C | 98% | 1008 hPa | 0 mm | - | 811 W/m² | - |
| 1778158490 | 10.56° C | 99% | 1008 hPa | 0 mm | - | 897 W/m² | - |
| 1778158187 | 10.56° C | 99% | 1008 hPa | 0 mm | - | 154 W/m² | - |
| 1778157883 | 10° C | 99% | 1008.2 hPa | 0 mm | - | 150 W/m² | - |
| 1778157582 | 10° C | 99% | 1008 hPa | 0 mm | - | 111 W/m² | - |
| 1778157279 | 10° C | 99% | 1008 hPa | 0 mm | - | 137 W/m² | - |
| 1778156975 | 9.44° C | 99% | 1008.6 hPa | 0 mm | - | 120 W/m² | - |
| 1778156670 | 9.44° C | 99% | 1008.4 hPa | 0 mm | - | 76 W/m² | - |
| 1778156367 | 10° C | 99% | 1008.7 hPa | 0 mm | - | 111 W/m² | - |
| 1778156062 | 9.44° C | 99% | 1008.6 hPa | 0 mm | - | 121 W/m² | - |
* Rain latest hour (hover to see other rain measurements)
** Current wind speed in m/s (hover to see current wind gust speed)